Location: Heppenheim
(49.6410°N, 8.6370°E)
Time: 16:13:44
(UTC+02:00)

ISS - Pass Details

Date: 08 May 2026
Orbit: 414 x 424 km, 51.6° (Epoch: 10 May)

Event Time Altitude Azimuth Distance (km) Brightness Sun altitude
Exits shadow 04:07:33 11° 280° (W) 1,463 -1.3 -13.9°
Maximum altitude 04:10:37 39° 211° (SSW) 645 -3.3 -13.6°
Drops below altitude 10° 04:13:47 10° 141° (SE) 1,496 -1.0 -13.3°
Sets 04:15:57 0° 133° (SE) 2,359 0.1 -13.0°
